Location: Samoth
(37.3328°N, 88.7876°W)
Time: 14:10:07
(UTC+00:00)

Cosmos 1812 Rocket - Pass Details

Date: 29 October 2020
Orbit: 605 x 632 km, 82.5° (Epoch: 03 December)

Event Time Altitude Azimuth Distance (km) Brightness Sun altitude
Rises 23:46:57 0° 159° (SSE) 2,891 6.9 -9.9°
Reaches altitude 10° 23:49:26 10° 147° (SSE) 1,985 5.9 -10.4°
Maximum altitude 23:53:07 27° 90° (E) 1,204 4.5 -11.1°
Drops below altitude 10° 23:56:47 10° 33° (NNE) 1,983 5.8 -11.9°
Sets 23:59:16 0° 21° (NNE) 2,887 6.7 -12.4°
